Location: Schommer Observatory
(40.5200°N, 74.4500°W)
Time: 12:15:23
(UTC-05:00)

OTV 5 (USA 277) - Pass Details

Date: 14 November 2017
Orbit: 404 x 417 km, 43.0° (Epoch: 07 September)

Event Time Altitude Azimuth Distance (km) Brightness Sun altitude
Exits shadow 05:13:27 45° 319° (NW) 563 ? -17.1°
Maximum altitude 05:14:01 52° 359° (N) 506 ? -17.0°
Drops below altitude 10° 05:17:15 10° 77° (ENE) 1,456 ? -16.4°
Sets 05:19:22 0° 82° (E) 2,315 ? -16.0°
